User: anonymous   Login
Location: Washington
(38.8950°N, 77.0370°W)
Time: 23:19:11
(UTC-04:00)
Language:

IDEFIX/ARIANE 42P - Orbit

View from above orbital plane
View from above orbital plane
View from above satellite
View from above satellite

Ground track
Ground track

The orbit data is extracted from the following two-line orbital elements,

1 27422U 02021B   16175.93342000 -.00000022 +00000-0 +72725-5 0  9996
2 27422 098.2297 190.0841 0011521 213.5243 146.5212 14.29245523737396
Epoch (UTC): 23 June 2016 22:24:07
Eccentricity: 0.0011521
inclination: 98.2297°
perigee height: 786 km
apogee height: 802 km
right ascension of ascending node: 190.0841°
argument of perigee: 213.5243°
revolutions per day: 14.29245523
mean anomaly at epoch: 146.5212°
orbit number at epoch: 73739

The dashed part of the orbit path shows where the satellite is in the earth's shadow,  

DLR